Location: Chena
(64.8152°N, 147.9227°W)
Time: 19:49:52
(UTC+00:00)

Transit 2A - All Passes

Search period start: 04 March 2021 00:00
Search period end: 14 March 2021 00:00
Orbit: 601 x 958 km, 66.7° (Epoch: 04 March)

Date Brightness Start Highest point End Pass type
(mag) Time Alt. Az. Time Alt. Az. Time Alt. Az.
04 Mar - 04:08:38 10° SSE 04:12:07 19° ESE 04:15:24 10° ENE visible
04 Mar - 05:49:39 10° SW 05:54:31 53° SE 05:58:58 10° ENE visible
04 Mar - 07:32:43 10° WSW 07:37:36 80° NNW 07:42:06 10° ENE visible
04 Mar - 09:16:18 10° WNW 09:21:01 72° N 09:25:25 10° E visible
04 Mar - 10:59:41 10° WNW 11:04:14 68° SSW 11:08:33 10° SE visible
04 Mar - 12:43:09 10° WNW 12:46:45 24° WSW 12:50:15 10° S night (unlit)
05 Mar - 03:35:22 10° SSE 03:38:10 15° ESE 03:40:51 10° E daylight
05 Mar - 05:15:41 10° SSW 05:20:24 44° SE 05:24:47 10° ENE visible
05 Mar - 06:58:29 10° WSW 07:03:23 87° NNW 07:07:54 10° ENE visible
05 Mar - 08:42:03 10° W 08:46:46 70° N 08:51:11 10° E visible
05 Mar - 10:25:29 10° WNW 10:30:05 79° SSW 10:34:26 10° ESE visible
05 Mar - 12:08:51 10° WNW 12:12:45 30° SW 12:16:32 10° S night (unlit)
06 Mar - 03:02:35 10° SE 03:04:16 12° ESE 03:05:56 10° E daylight
06 Mar - 04:41:47 10° SSW 04:46:20 36° SE 04:50:34 10° ENE visible
06 Mar - 06:24:17 10° WSW 06:29:12 85° SSE 06:33:43 10° ENE visible
06 Mar - 08:07:48 10° W 08:12:32 69° N 08:16:57 10° E visible
06 Mar - 09:51:16 10° WNW 09:55:54 89° S 10:00:16 10° ESE visible
06 Mar - 11:34:35 10° WNW 11:38:43 37° SW 11:42:43 10° SSE visible
06 Mar - 13:19:29 10° W 13:20:40 11° WSW 13:21:52 10° SW night (unlit)
07 Mar - 04:07:59 10° S 04:12:18 30° SE 04:16:18 10° ENE visible
07 Mar - 05:50:07 10° SW 05:55:00 75° SSE 05:59:32 10° ENE visible
07 Mar - 07:33:32 10° W 07:38:18 70° N 07:42:44 10° ENE visible
07 Mar - 09:17:04 10° WNW 09:21:42 83° NNE 09:26:05 10° ESE visible
07 Mar - 11:00:22 10° WNW 11:04:39 45° SW 11:08:48 10° SSE visible
07 Mar - 12:44:25 10° W 12:46:48 14° WSW 12:49:09 10° SSW night (unlit)
08 Mar - 03:34:19 10° S 03:38:17 24° ESE 03:42:01 10° ENE daylight
08 Mar - 05:15:59 10° SW 05:20:51 64° SE 05:25:21 10° ENE visible
08 Mar - 06:59:17 10° W 07:04:04 74° N 07:08:31 10° ENE visible
08 Mar - 08:42:50 10° WNW 08:47:29 76° NNE 08:51:52 10° E visible
08 Mar - 10:26:09 10° WNW 10:30:34 55° SW 10:34:49 10° SE visible
08 Mar - 12:09:51 10° WNW 12:12:53 18° WSW 12:15:52 10° SSW night (unlit)
09 Mar - 03:00:48 10° SSE 03:04:18 20° ESE 03:07:38 10° ENE daylight
09 Mar - 04:41:56 10° SW 04:46:44 54° SE 04:51:10 10° ENE visible
09 Mar - 06:25:01 10° WSW 06:29:50 78° NNW 06:34:18 10° ENE visible
09 Mar - 08:08:36 10° WNW 08:13:15 72° N 08:17:38 10° E visible
09 Mar - 09:51:57 10° WNW 09:56:26 66° SSW 10:00:45 10° SE visible
09 Mar - 11:35:26 10° WNW 11:38:55 23° WSW 11:42:21 10° S visible
10 Mar - 02:27:30 10° SSE 02:30:22 16° ESE 02:33:07 10° E daylight
10 Mar - 04:07:56 10° SSW 04:12:38 45° SE 04:16:59 10° ENE daylight
10 Mar - 05:50:47 10° WSW 05:55:37 85° NNW 06:00:06 10° ENE visible
10 Mar - 07:34:21 10° W 07:39:01 70° N 07:43:24 10° E visible
10 Mar - 09:17:45 10° WNW 09:22:17 77° SSW 09:26:38 10° SE visible
10 Mar - 11:01:07 10° WNW 11:04:56 29° SW 11:08:41 10° S visible
11 Mar - 01:54:36 10° SE 01:56:28 12° ESE 01:58:16 10° E daylight
11 Mar - 03:34:01 10° SSW 03:38:33 37° SE 03:42:46 10° ENE daylight
11 Mar - 05:16:34 10° WSW 05:21:25 86° SSE 05:25:54 10° ENE visible
11 Mar - 07:00:06 10° W 07:04:46 69° N 07:09:10 10° E visible
11 Mar - 08:43:33 10° WNW 08:48:07 87° SSW 08:52:29 10° ESE visible
11 Mar - 10:26:51 10° WNW 10:30:55 35° SW 10:34:53 10° SSE visible
11 Mar - 12:12:10 10° W 12:12:50 10° WSW 12:13:31 10° WSW night (unlit)
12 Mar - 03:00:12 10° S 03:04:30 30° SE 03:08:31 10° ENE daylight
12 Mar - 04:42:24 10° SW 04:47:14 77° SSE 04:51:44 10° ENE visible
12 Mar - 06:25:50 10° W 06:30:32 70° N 06:34:57 10° E visible
12 Mar - 08:09:20 10° WNW 08:13:55 84° NNE 08:18:18 10° ESE visible
12 Mar - 09:52:37 10° WNW 09:56:52 43° SW 10:00:59 10° SSE visible
12 Mar - 11:36:47 10° W 11:38:57 14° WSW 11:41:08 10° SW visible
13 Mar - 02:26:31 10° S 02:30:29 25° SE 02:34:14 10° ENE daylight
13 Mar - 04:08:16 10° SW 04:13:05 66° SSE 04:17:33 10° ENE daylight
13 Mar - 05:51:35 10° W 05:56:18 73° N 06:00:43 10° ENE visible
13 Mar - 07:35:06 10° WNW 07:39:43 77° NNE 07:44:05 10° ESE visible
13 Mar - 09:18:24 10° WNW 09:22:46 53° SW 09:27:00 10° SE visible
13 Mar - 11:02:08 10° WNW 11:05:03 17° WSW 11:07:56 10° SSW visible
